x

La Perouse Bank (46206) Wave Buoy

1:00 - Tue 24th May 2016 All times are PDT. -7 hours from GMT.

  • Sig Wave height 5.6ft
  • Peak Period 10s
  • Wind
    4mph, 7mph gusts
  • Sea Temp 57°f
  • Ar Temp 56°f
  • Sea Pressure 1016.5mb
  • La Perouse Bank
  • La Perouse Bank

More Historic Weather Station data

Upgrade to MSW Pro to gain access to the past 30 days of data for over 8000 Wavebouys and Weather Stations around the globe.

Join Pro

Comparision Forecast

View Surf forecast
   
Ter 05/24 1:00 5.5ft 10s 4 7 mph 1016.5mb 57f 56f
12:00 6ft 10s 2 4 mph 1016.2mb 57f 56f
11:00 5.5ft 10s 2 4 mph 1016mb 56f 55f
10:00 5.5ft 9s 2 4 mph 1015.6mb 55f 55f
9:00 5.5ft 9s 4 7 mph 1015.4mb 55f 55f
8:00 6ft 9s 4 9 mph 1015.1mb 55f 55f
7:00 6ft 9s 7 11 mph 1014.8mb 55f 54f
6:00 6ft 9s 13 18 mph 1014.5mb 55f 54f
5:00 6.5ft 9s 11 18 mph 1014.5mb 55f 54f
4:00 6ft 9s 13 18 mph 1014.2mb 55f 54f
3:00 6.5ft 9s 16 20 mph 1014.2mb 55f 54f
2:00 6ft 9s 11 20 mph 1014.2mb 55f 55f
1:00 5.5ft 9s 13 18 mph 1014.3mb 55f 55f
12:00 5ft 10s 11 18 mph 1014.5mb 56f 55f
Seg 05/23 11:00 5ft 10s 11 18 mph 1014.3mb 56f 55f
10:00 5ft 9s 7 11 mph 1014.4mb 56f 56f
9:00 5.5ft 9s 4 9 mph 1014.1mb 56f 55f
8:00 5.5ft 9s 9 11 mph 1014.3mb 56f 55f
7:00 5.5ft 10s 7 11 mph 1014.3mb 56f 55f
6:00 5.5ft 10s 7 11 mph 1014.4mb 56f 55f
5:00 5ft 10s 4 11 mph 1014.6mb 57f 55f
4:00 5ft 10s 9 13 mph 1014.7mb 56f 56f
3:00 5ft 10s 11 13 mph 1014.7mb 56f 55f
2:00 5ft 10s 9 11 mph 1014.6mb 56f 55f
1:00 6ft 10s 7 11 mph 1014.5mb 56f 55f
12:00 5.5ft 10s 7 9 mph 1014.5mb 56f 55f
11:00 5.5ft 10s 4 9 mph 1014.4mb 55f 55f
10:00 5ft 9s 2 7 mph 1014.6mb 55f 55f
9:00 5.5ft 9s 2 4 mph 1014.5mb 55f 55f
8:00 5.5ft 10s  -  2 mph 1014.2mb 55f 55f
7:00 6ft 10s  -  2 mph 1014.1mb 55f 54f
6:00 5ft 10s  -  2 mph 1013.8mb 55f 53f
5:00 5ft 9s  -  2 mph 1013.6mb 55f 54f
4:00 5ft 9s  -  4 mph 1013.5mb 55f 53f
3:00 4.5ft 8s  -  4 mph 1013.4mb 55f 53f
2:00 4.5ft 9s  -  4 mph 1013.5mb 55f 53f
1:00 4ft 9s 2 7 mph 1013.2mb 55f 54f
12:00 3.5ft 9s 4 9 mph 1013.4mb 55f 55f
Dom 05/22 11:00 3.5ft 8s 4 9 mph 1013.6mb 55f 55f
10:00 3.5ft 8s 4 9 mph 1013.4mb 55f 55f
9:00 3.5ft 8s 9 13 mph 1012.8mb 55f 55f
8:00 3.5ft 8s 11 13 mph 1012.9mb 55f 54f
7:00 3.5ft 8s 11 13 mph 1013.1mb 55f 54f
6:00 3ft 14s 13 18 mph 1012.8mb 55f 54f
5:00 3.5ft 7s 11 16 mph 1013mb 55f 54f
4:00 3.5ft 14s 9 13 mph 1013mb 55f 54f
3:00 3.5ft 8s 7 13 mph 1013mb 55f 55f
2:00 3.5ft 8s 9 13 mph 1012.8mb 55f 55f
1:00 3.5ft 8s 11 13 mph 1012.5mb 55f 55f
12:00 3.5ft 8s 11 16 mph 1012.4mb 55f 55f
11:00 3ft 8s 11 16 mph 1012.6mb 55f 55f
10:00 3.5ft 8s 9 13 mph 1012.6mb 55f 55f
9:00 3.5ft 8s 9 11 mph 1012.6mb 55f 55f
8:00 3.5ft 8s 7 11 mph 1012.6mb 55f 55f
7:00 3.5ft 8s 4 7 mph 1012.2mb 55f 55f
6:00 3.5ft 8s 7 13 mph 1011.8mb 55f 55f
5:00 3.5ft 8s 4 7 mph 1011.6mb 56f 55f
4:00 4ft 8s 7 9 mph 1011.5mb 56f 55f
3:00 4ft 8s 4 9 mph 1011.3mb 56f 55f
2:00 3.5ft 9s 7 9 mph 1011.3mb 56f 55f
1:00 3.5ft 8s 9 11 mph 1011.1mb 56f 55f
12:00 4ft 8s 9 13 mph 1011.3mb 56f 55f
Sáb 05/21 11:00 3.5ft 9s 9
mph
1011.5mb 56f 55f
10:00 4ft 8s 7 9 mph 1011.3mb 56f 55f
9:00 4.5ft 8s 7 9 mph 1010.9mb 56f 55f
8:00 4.5ft 9s 7 9 mph 1010.6mb 56f 55f
7:00 4.5ft 8s 9 11 mph 1010.1mb 56f 56f
6:00 4.5ft 9s 9 11 mph 1009.4mb 56f 56f
5:00 4ft 8s 9
mph
1009.3mb 56f 56f
4:00 4.5ft 9s 9 11 mph 1009.2mb 56f 56f
3:00 4.5ft 9s 7 9 mph 1009.1mb 56f 56f
2:00 4.5ft 9s 7 9 mph 1008.6mb 55f 56f
1:00 4.5ft 9s 9 11 mph 1008.3mb 56f 55f
12:00 4.5ft 9s 9 11 mph 1008.3mb 55f 56f
11:00 4.5ft 8s 4
mph
1008mb 55f 56f
10:00 4.5ft 9s 4 7 mph 1007.8mb 55f 55f
9:00 5ft 9s 4 7 mph 1007.7mb 55f 55f
8:00 5ft 10s 9 11 mph 1007.7mb 55f 55f
7:00 5ft 9s 7 9 mph 1007.7mb 55f 55f
6:00 5ft 9s 9
mph
1007.7mb 55f 54f
5:00 5ft 9s 7 9 mph 1007.8mb 54f 54f
4:00 5ft 10s 7 11 mph 1008mb 54f 54f
3:00 6ft 9s 9 13 mph 1008.1mb 54f 54f
2:00 6.5ft 10s 11 13 mph 1008.3mb 55f 55f
1:00 6.5ft 10s 11 18 mph 1008.6mb 54f 55f
12:00 6.5ft 10s 16 20 mph 1008.7mb 54f 55f
Sex 05/20 11:00 6.5ft 10s 16 20 mph 1009.2mb 54f 55f
10:00 7ft 10s 16 20 mph 1009.3mb 54f 55f